Location: Unspecified
(0.0000°N, 0.0000°E)
Time: 16:19:51
(UTC+00:00)

Envisat - Pass Details

Date: 10 June 2018
Orbit: 764 x 766 km, 98.1° (Epoch: 21 October)

Event Time Altitude Azimuth Distance (km) Brightness Sun altitude
Exits shadow 19:39:25 56° 107° (ESE) 904 3.0 -22.9°
Maximum altitude 19:39:57 60° 78° (ENE) 874 3.0 -23.0°
Drops below altitude 10° 19:44:57 10° 359° (N) 2,305 5.8 -24.1°
Sets 19:47:15 0° 355° (N) 3,217 6.6 -24.6°
